Location: Ferchesar
(52.6477°N, 12.4298°E)
Time: 20:17:16
(UTC+02:00)

A-11 Canister half - Pass Details

Date: 08 March 2021
Orbit: 1525 x 1683 km, 47.3° (Epoch: 11 April)

Event Time Altitude Azimuth Distance (km) Brightness Sun altitude
Exits shadow 02:15:13 26° 133° (SE) 2,739 10.2 -36.8°
Drops below altitude 10° 02:22:11 10° 86° (E) 3,762 11.4 -36.1°
Sets 02:25:50 0° 74° (ENE) 4,727 12.2 -35.8°
